Location: Katherine
(14.4670°S, 132.2670°E)
Time: 22:29:18
(UTC+09:30)

ISS - Pass Details

Date: 19 June 2018
Orbit: 403 x 408 km, 51.6° (Epoch: 15 October)

Event Time Altitude Azimuth Distance (km) Brightness Sun altitude
Rises 19:28:26 0° 342° (NNW) 2,301 0.6 -16.1°
Reaches altitude 10° 19:30:41 10° 355° (N) 1,447 -0.7 -16.6°
Enters shadow 19:33:17 27° 48° (NE) 813 -2.6 -17.2°
